TimeCEST,TemperatureF,Dew PointF,Humidity,Sea Level PressureIn,VisibilityMPH,Wind Direction,Wind SpeedMPH,Gust SpeedMPH,PrecipitationIn,Events,Conditions,WindDirDegrees,DateUTC
12:20 AM,64.4,62.6,94,30.24,3.7,Calm,Calm,-,N/A,,Unknown,0,2013-10-21 22:20:00
1:50 AM,-9999,-9999,N/A,-9999,2.5,Calm,Calm,-,N/A,,Mist,0,2013-10-21 23:50:00
2:20 AM,62.6,60.8,94,30.21,2.5,Variable,1.2,-,N/A,,Mist,0,2013-10-22 00:20:00
2:50 AM,60.8,59.0,94,30.21,2.5,Variable,1.2,-,N/A,,Mist,0,2013-10-22 00:50:00
3:20 AM,60.8,59.0,94,30.21,5.0,West,1.2,-,N/A,,Unknown,270,2013-10-22 01:20:00
3:50 AM,62.6,60.8,94,30.21,5.0,North,1.2,-,N/A,,Unknown,360,2013-10-22 01:50:00
4:20 AM,60.8,59.0,94,30.21,3.7,NNW,2.3,-,N/A,,Unknown,340,2013-10-22 02:20:00
4:50 AM,60.8,59.0,94,30.21,3.7,NNW,2.3,-,N/A,,Unknown,330,2013-10-22 02:50:00
5:20 AM,60.8,59.0,94,30.21,3.7,NNW,2.3,-,N/A,,Unknown,340,2013-10-22 03:20:00
5:50 AM,60.8,59.0,94,30.21,3.7,NNW,2.3,-,N/A,,Unknown,340,2013-10-22 03:50:00
6:20 AM,60.8,57.2,88,30.18,5.0,NNW,1.2,-,N/A,,Unknown,330,2013-10-22 04:20:00
6:50 AM,60.8,59.0,94,30.21,5.0,North,2.3,-,N/A,,Unknown,360,2013-10-22 04:50:00
7:20 AM,62.6,59.0,88,30.21,5.0,North,2.3,-,N/A,,Unknown,360,2013-10-22 05:20:00
7:50 AM,62.6,59.0,88,30.21,5.0,North,3.5,-,N/A,,Unknown,360,2013-10-22 05:50:00
8:20 AM,62.6,59.0,88,30.21,-9999.0,Variable,1.2,-,N/A,,Clear,0,2013-10-22 06:20:00
8:50 AM,66.2,60.8,83,30.21,-9999.0,NNE,3.5,-,N/A,,Clear,30,2013-10-22 06:50:00
9:20 AM,66.2,60.8,83,30.21,-9999.0,Variable,2.3,-,N/A,,Clear,0,2013-10-22 07:20:00
9:50 AM,68.0,60.8,78,30.21,-9999.0,Variable,2.3,-,N/A,,Clear,0,2013-10-22 07:50:00
10:20 AM,71.6,62.6,73,30.21,-9999.0,Variable,1.2,-,N/A,,Clear,0,2013-10-22 08:20:00
6:50 PM,69.8,64.4,83,30.15,5.0,South,4.6,-,N/A,,Unknown,190,2013-10-22 16:50:00
8:50 PM,68.0,64.4,88,30.18,5.0,East,2.3,-,N/A,,Scattered Clouds,80,2013-10-22 18:50:00
9:20 PM,69.8,66.2,88,30.18,5.0,Variable,2.3,-,N/A,,Scattered Clouds,0,2013-10-22 19:20:00
9:50 PM,68.0,64.4,88,30.18,5.0,Variable,1.2,-,N/A,,Mostly Cloudy,0,2013-10-22 19:50:00
10:20 PM,69.8,64.4,83,30.18,5.0,Variable,2.3,-,N/A,,Mostly Cloudy,0,2013-10-22 20:20:00
10:50 PM,68.0,64.4,88,30.21,3.7,Variable,1.2,-,N/A,,Mostly Cloudy,0,2013-10-22 20:50:00
11:20 PM,68.0,64.4,88,30.21,3.7,Variable,1.2,-,N/A,,Mostly Cloudy,0,2013-10-22 21:20:00
11:50 PM,68.0,64.4,88,30.21,3.7,Variable,1.2,-,N/A,,Mostly Cloudy,0,2013-10-22 21:50:00